| time (UTC) | temp F | wind direction | speed MPH | gust MPH | rain 1hr in | rain 24hr in | rain mn in | humidity % | barometer mb |
| 20260906120044 | 71 | 100 | 3.0 | 6.0 | 0.00 | 0.00 | 0.00 | 77 | 1009.8 |
| 20260906114540 | 73 | 113 | 2.0 | 10.0 | 0.00 | 0.00 | 0.00 | 69 | 1009.9 |
| 20260906113039 | 74 | 79 | 3.0 | 6.0 | 0.00 | 0.00 | 0.00 | 63 | 1009.7 |
| 20260906111539 | 73 | 108 | 1.0 | 6.0 | 0.00 | 0.00 | 0.00 | 62 | 1009.5 |
| 20260906110036 | 73 | 96 | 2.0 | 4.0 | 0.00 | 0.00 | 0.00 | 65 | 1009.1 |
| 20260906104538 | 74 | 143 | 2.0 | 5.0 | 0.00 | 0.00 | 0.00 | 63 | 1009.1 |
| 20260906103034 | 76 | 192 | 3.0 | 6.0 | 0.00 | 0.00 | 0.00 | 53 | 1009.1 |
| 20260906101531 | 78 | 145 | 3.0 | 7.0 | 0.00 | 0.00 | 0.00 | 49 | 1008.9 |
| 20260906100026 | 79 | 119 | 2.0 | 5.0 | 0.00 | 0.00 | 0.00 | 51 | 1008.7 |
| 20260906094525 | 80 | 119 | 1.0 | 4.0 | 0.00 | 0.00 | 0.00 | 45 | 1008.7 |
| 20260906093024 | 79 | 122 | 1.0 | 5.0 | 0.00 | 0.00 | 0.00 | 45 | 1008.6 |
| 20260906091525 | 79 | 134 | 2.0 | 6.0 | 0.00 | 0.00 | 0.00 | 45 | 1008.7 |
| 20260906090026 | 79 | 96 | 0.0 | 2.0 | 0.00 | 0.00 | 0.00 | 45 | 1008.7 |
| 20260906084521 | 79 | 124 | 2.0 | 4.0 | 0.00 | 0.00 | 0.00 | 45 | 1008.9 |
| 20260906083019 | 79 | 106 | 1.0 | 4.0 | 0.00 | 0.00 | 0.00 | 45 | 1009.0 |
| 20260906081518 | 79 | 99 | 0.0 | 3.0 | 0.00 | 0.00 | 0.00 | 44 | 1009.2 |
| 20260906080020 | 78 | 101 | 0.0 | 3.0 | 0.00 | 0.00 | 0.00 | 45 | 1009.1 |
| 20260906074516 | 78 | 91 | 1.0 | 4.0 | 0.00 | 0.00 | 0.00 | 44 | 1009.1 |
| 20260906073021 | 78 | 96 | 2.0 | 7.0 | 0.00 | 0.00 | 0.00 | 43 | 1009.4 |
| 20260906071513 | 78 | 102 | 0.0 | 6.0 | 0.00 | 0.00 | 0.00 | 43 | 1009.6 |
| 20260906070013 | 78 | 94 | 1.0 | 4.0 | 0.00 | 0.00 | 0.00 | 43 | 1009.4 |
| 20260906064612 | 78 | 108 | 2.0 | 5.0 | 0.00 | 0.00 | 0.00 | 43 | 1009.4 |
| 20260906063012 | 77 | 98 | 1.0 | 4.0 | 0.00 | 0.00 | 0.00 | 43 | 1009.5 |
| 20260906061509 | 78 | 96 | 0.0 | 3.0 | 0.00 | 0.00 | 0.00 | 42 | 1009.3 |
| 20260906060011 | 77 | 105 | 1.0 | 4.0 | 0.00 | 0.00 | 0.00 | 42 | 1009.2 |
| 20260906054509 | 77 | 110 | 0.0 | 3.0 | 0.00 | 0.00 | 0.00 | 42 | 1009.2 |
| 20260906053007 | 78 | 91 | 2.0 | 5.0 | 0.00 | 0.00 | 0.00 | 41 | 1009.2 |
| 20260906051504 | 79 | 93 | 2.0 | 4.0 | 0.00 | 0.00 | 0.00 | 40 | 1009.2 |
| 20260906050003 | 79 | 96 | 3.0 | 6.0 | 0.00 | 0.00 | 0.00 | 40 | 1009.2 |
| 20260906044502 | 79 | 101 | 4.0 | 6.0 | 0.00 | 0.00 | 0.00 | 40 | 1009.2 |
| 20260906043001 | 79 | 120 | 2.0 | 5.0 | 0.00 | 0.00 | 0.00 | 40 | 1009.3 |
| 20260906041557 | 80 | 128 | 2.0 | 4.0 | 0.00 | 0.00 | 0.00 | 39 | 1009.2 |
| 20260906034553 | 81 | 113 | 1.0 | 3.0 | 0.00 | 0.00 | 0.00 | 37 | 1009.1 |
| 20260906033103 | 82 | 162 | 2.0 | 7.0 | 0.00 | 0.00 | 0.00 | 37 | 1009.0 |
| 20260906031551 | 82 | 150 | 3.0 | 6.0 | 0.00 | 0.00 | 0.00 | 36 | 1008.8 |
| 20260906030050 | 82 | 135 | 4.0 | 7.0 | 0.00 | 0.00 | 0.00 | 36 | 1008.8 |
| 20260906024650 | 82 | 129 | 3.0 | 6.0 | 0.00 | 0.00 | 0.00 | 36 | 1008.6 |
| 20260906023049 | 83 | 130 | 2.0 | 5.0 | 0.00 | 0.00 | 0.00 | 36 | 1008.5 |
| 20260906021552 | 83 | 198 | 5.0 | 10.0 | 0.00 | 0.00 | 0.00 | 35 | 1008.3 |
| 20260906020053 | 85 | 186 | 6.0 | 11.0 | 0.00 | 0.00 | 0.00 | 34 | 1008.3 |
| 20260906014555 | 86 | 153 | 7.0 | 13.0 | 0.00 | 0.00 | 0.00 | 33 | 1008.3 |
| 20260906013048 | 87 | 176 | 8.0 | 16.0 | 0.00 | 0.00 | 0.00 | 31 | 1008.3 |
| 20260906011545 | 88 | 186 | 11.0 | 18.0 | 0.00 | 0.00 | 0.00 | 31 | 1008.3 |
| 20260906010045 | 89 | 179 | 11.0 | 19.0 | 0.00 | 0.00 | 0.00 | 30 | 1008.4 |
| 20260906004544 | 89 | 191 | 10.0 | 18.0 | 0.00 | 0.00 | 0.00 | 29 | 1008.3 |
| 20260906003044 | 90 | 168 | 14.0 | 19.0 | 0.00 | 0.00 | 0.00 | 29 | 1008.4 |
| 20260906001543 | 90 | 162 | 12.0 | 22.0 | 0.00 | 0.00 | 0.00 | 30 | 1008.3 |
| 20260906000044 | 91 | 183 | 11.0 | 22.0 | 0.00 | 0.00 | 0.00 | 29 | 1008.3 |
| 20260905234559 | 91 | 188 | 12.0 | 20.0 | 0.00 | 0.00 | 0.00 | 28 | 1008.3 |
| 20260905233044 | 91 | 193 | 12.0 | 22.0 | 0.00 | 0.00 | 0.00 | 28 | 1008.4 |
| 20260905231544 | 91 | 150 | 12.0 | 21.0 | 0.00 | 0.00 | 0.00 | 28 | 1008.4 |
| 20260905230059 | 90 | 176 | 15.0 | 22.0 | 0.00 | 0.00 | 0.00 | 28 | 1008.3 |
| 20260905224540 | 92 | 141 | 12.0 | 22.0 | 0.00 | 0.00 | 0.00 | 27 | 1008.4 |
| 20260905223038 | 92 | 154 | 15.0 | 24.0 | 0.00 | 0.00 | 0.00 | 28 | 1008.4 |
| 20260905221538 | 92 | 175 | 11.0 | 20.0 | 0.00 | 0.00 | 0.00 | 27 | 1008.6 |
| 20260905220037 | 92 | 146 | 12.0 | 21.0 | 0.00 | 0.00 | 0.00 | 27 | 1008.5 |
| 20260905214536 | 92 | 204 | 12.0 | 23.0 | 0.00 | 0.00 | 0.00 | 27 | 1008.7 |
| 20260905213035 | 92 | 153 | 15.0 | 22.0 | 0.00 | 0.00 | 0.00 | 27 | 1008.9 |
| 20260905211537 | 92 | 185 | 14.0 | 24.0 | 0.00 | 0.00 | 0.00 | 27 | 1009.1 |
| 20260905210032 | 92 | 162 | 15.0 | 24.0 | 0.00 | 0.00 | 0.00 | 27 | 1009.1 |
| 20260905204536 | 92 | 179 | 17.0 | 26.0 | 0.00 | 0.00 | 0.00 | 27 | 1009.3 |
| 20260905203031 | 92 | 176 | 14.0 | 26.0 | 0.00 | 0.00 | 0.00 | 26 | 1009.4 |
| 20260905201526 | 92 | 171 | 15.0 | 23.0 | 0.00 | 0.00 | 0.00 | 27 | 1009.4 |
| 20260905200025 | 92 | 181 | 15.0 | 25.0 | 0.00 | 0.00 | 0.00 | 27 | 1009.6 |
| 20260905194524 | 91 | 162 | 17.0 | 25.0 | 0.00 | 0.00 | 0.00 | 28 | 1009.8 |
| 20260905193022 | 92 | 158 | 14.0 | 23.0 | 0.00 | 0.00 | 0.00 | 28 | 1009.9 |
| 20260905191520 | 91 | 169 | 14.0 | 26.0 | 0.00 | 0.00 | 0.00 | 28 | 1010.1 |
| 20260905190022 | 91 | 155 | 16.0 | 25.0 | 0.00 | 0.00 | 0.00 | 29 | 1010.4 |
| 20260905184521 | 91 | 186 | 13.0 | 22.0 | 0.00 | 0.00 | 0.00 | 29 | 1010.4 |
| 20260905183016 | 90 | 162 | 11.0 | 21.0 | 0.00 | 0.00 | 0.00 | 29 | 1010.3 |
| 20260905181515 | 89 | 256 | 11.0 | 21.0 | 0.00 | 0.00 | 0.00 | 29 | 1010.5 |
| 20260905180012 | 89 | 196 | 9.0 | 14.0 | 0.00 | 0.00 | 0.00 | 28 | 1010.6 |
| 20260905174510 | 88 | 151 | 11.0 | 17.0 | 0.00 | 0.00 | 0.00 | 28 | 1010.7 |
| 20260905173010 | 88 | 160 | 11.0 | 18.0 | 0.00 | 0.00 | 0.00 | 29 | 1010.6 |
| 20260905171510 | 87 | 187 | 11.0 | 20.0 | 0.00 | 0.00 | 0.00 | 30 | 1010.7 |
| 20260905170007 | 87 | 172 | 9.0 | 15.0 | 0.00 | 0.00 | 0.00 | 29 | 1010.6 |
| 20260905164513 | 86 | 135 | 6.0 | 14.0 | 0.00 | 0.00 | 0.00 | 30 | 1010.6 |
| 20260905163003 | 86 | 151 | 6.0 | 12.0 | 0.00 | 0.00 | 0.00 | 30 | 1010.6 |
| 20260905161600 | 85 | 203 | 8.0 | 15.0 | 0.00 | 0.00 | 0.00 | 30 | 1010.6 |
| 20260905160058 | 85 | 169 | 7.0 | 17.0 | 0.00 | 0.00 | 0.00 | 31 | 1010.5 |
| 20260905154605 | 84 | 160 | 5.0 | 11.0 | 0.00 | 0.00 | 0.00 | 32 | 1010.4 |
| 20260905153053 | 83 | 117 | 7.0 | 12.0 | 0.00 | 0.00 | 0.00 | 33 | 1010.3 |
| 20260905151551 | 83 | 129 | 5.0 | 11.0 | 0.00 | 0.00 | 0.00 | 33 | 1010.3 |
| 20260905150048 | 82 | 143 | 5.0 | 8.0 | 0.00 | 0.00 | 0.00 | 34 | 1010.4 |
| 20260905144547 | 81 | 167 | 4.0 | 11.0 | 0.00 | 0.00 | 0.00 | 30 | 1010.1 |
| 20260905143044 | 80 | 115 | 1.0 | 7.0 | 0.00 | 0.00 | 0.00 | 35 | 1010.0 |
| 20260905141541 | 77 | 11 | 1.0 | 3.0 | 0.00 | 0.00 | 0.00 | 37 | 1010.1 |
| 20260905140038 | 0 | 0.0 | 0.0 | 0.00 | 0.00 | 0.00 | 1010.0 | ||
| 20260905134544 | 0 | 0.0 | 0.0 | 0.00 | 0.00 | 0.00 | 1009.8 | ||
| 20260905133033 | 0 | 0.0 | 0.0 | 0.00 | 0.00 | 0.00 | 1009.7 | ||
| 20260905131534 | 0 | 0.0 | 0.0 | 0.00 | 0.00 | 0.00 | 1009.6 | ||
| 20260905130027 | 0 | 66 | 4.0 | 5.0 | 0.00 | 0.00 | 0.00 | 1009.6 | |
| 20260905124525 | 71 | 61 | 4.0 | 7.0 | 0.00 | 0.00 | 0.00 | 36 | 1009.3 |
| 20260905123024 | 73 | 70 | 2.0 | 6.0 | 0.00 | 0.00 | 0.00 | 36 | 1009.2 |
| 20260905121522 | 72 | 65 | 4.0 | 6.0 | 0.00 | 0.00 | 0.00 | 36 | 1009.2 |